Regional Weather Roundup
Issued by NWS

Home | Current Version | Previous Version | Graphics & Text | Print | Product List | Glossary On
Versions: 1 2 3 4 5 6 7 8 9 10 11 12 13 14 15 16 17 18 19 20 21 22 23 24 25 26 27 28 29 30 31 32 33 34 35 36 37 38 39 40 41 42 43 44 45 46 47 48 49 50
000
ASUS43 KLMK 121710
RWRKY
KENTUCKY REGIONAL WEATHER ROUNDUP
NATIONAL WEATHER SERVICE LOUISVILLE KY
1200 PM EST TUE DEC 12 2017

NOTE "FAIR" INDICATES FEW OR NO CLOUDS BELOW 12,000 FEET
WITH NO SIGNIFICANT WEATHER AND/OR OBSTRUCTIONS TO VISIBILITY.

KYZ001>023-026-027-061>063-070>075-121800-
WESTERN AND SOUTH CENTRAL KENTUCKY

CITY           SKY/WX    TMP DP  RH WIND       PRES   REMARKS
PADUCAH        SUNNY     37  15  40 NW15G25   30.19S WCI  28
HENDERSON      MOSUNNY   33  17  51 NW15G22   30.16S WCI  23
OWENSBORO      MOSUNNY   34  18  52 NW21      30.12S WCI  22
HOPKINSVILLE   SUNNY     38  20  47 NW17G28   30.12S WCI  29
BOWLING GREEN  CLOUDY    37  20  50 NW13G21   30.09S WCI  29
GLASGOW        PTSUNNY   37  24  59 W10G16    30.05F WCI  29
$$

KYZ024-025-028>034-038-045-046-053-121800-
NORTH CENTRAL KENTUCKY

CITY           SKY/WX    TMP DP  RH WIND       PRES   REMARKS
LOUISVILLE/SDF MOSUNNY   36  10  34 NW16G31   30.04R WCI  26
LOUISVILLE/LOU MOSUNNY   35  15  44 NW17G28   30.03S WCI  25
FORT KNOX      MOSUNNY   34  11  37 NW20G30   30.02S WCI  23
$$

KYZ035>037-039>044-047>052-055>060-089>105-121800-
NORTHEAST KENTUCKY

CITY           SKY/WX    TMP DP  RH WIND       PRES   REMARKS
LEXINGTON      CLOUDY    33  21  61 W17G30    29.95F WCI  22
COVINGTON      PTSUNNY   30  20  66 NW18      29.95F WCI  18
FRANKFORT      CLOUDY    32  18  56 NW18G30   29.97R WCI  20
$$

KYZ054-064>069-076>088-106>120-121800-
SOUTHEAST KENTUCKY

CITY           SKY/WX    TMP DP  RH WIND       PRES   REMARKS
JACKSON        CLOUDY    31  22  69 W8G20     29.88S WCI  23
LONDON         CLOUDY    34  21  59 NW12G29   29.93S WCI  25
SOMERSET       CLOUDY    32  27  80 W8        29.99F WCI  25
MIDDLESBORO    LGT RAIN  35  30  81 NW17G29   29.93R WCI  25
MONTICELLO     CLOUDY    35  22  58 W18G26    30.01S WCI  24
$$





USA.gov is the U.S. government's official web portal to all federal, state and local government web resources and services.